Location: Puketoi
(40.5833°S, 176.0167°E)
Time: 14:20:42
(UTC+00:00)

Cosmos 2026 Rocket - Pass Details

Date: 08 February 2023
Orbit: 940 x 999 km, 82.9° (Epoch: 22 March)

Event Time Altitude Azimuth Distance (km) Brightness Sun altitude
Rises 16:44:33 0° 193° (SSW) 3,724 7.3 -9.1°
Reaches altitude 10° 16:47:10 10° 198° (SSW) 2,761 6.5 -8.7°
Maximum altitude 16:53:14 50° 271° (W) 1,224 4.2 -7.7°
Drops below altitude 10° 16:59:08 10° 344° (NNW) 2,689 5.9 -6.7°
Sets 17:01:40 0° 349° (N) 3,618 6.6 -6.2°
